Location: Unspecified
(0.0000°N, 0.0000°E)
Time: 19:22:49
(UTC+00:00)

Vanguard 3 - Pass Details

Date: 01 October 2023
Orbit: 507 x 3241 km, 33.3° (Epoch: 29 November)

Event Time Altitude Azimuth Distance (km) Brightness Sun altitude
Rises 00:18:00 0° 336° (NNW) 2,793 - -82.4°
Reaches altitude 10° 00:22:06 10° 17° (NNE) 1,719 - -81.4°
Maximum altitude 00:23:00 11° 32° (NNE) 1,664 - -81.2°
Drops below altitude 10° 00:23:53 10° 46° (NE) 1,703 - -81.0°
Sets 00:27:51 0° 88° (E) 2,699 - -80.1°
